Regional Weather Roundup
Issued by NWS

Home | Current Version | Previous Version | Text Only | Print | Product List | Glossary On
Versions: 1 2 3 4 5 6 7 8 9 10 11 12 13 14 15 16 17 18 19 20 21 22 23 24 25 26 27 28 29 30 31 32 33 34 35 36 37 38 39 40 41 42 43 44 45 46 47 48 49 50
000
ASUS44 KLIX 281911
RWRLA
LOUISIANA WEATHER ROUNDUP
NATIONAL WEATHER SERVICE NEW ORLEANS LA
200 PM CDT SUN AUG 28 2016

NOTE: "FAIR" INDICATES FEW OR NO CLOUDS BELOW 12,000 FEET WITH NO
      SIGNIFICANT WEATHER AND/OR OBSTRUCTIONS TO VISIBILITY.
      SKY/WX - SKY CONDITION AND SIGNIFICANT WEATHER.
      TMP - AIR TEMPERATURE.    DP   - DEWPOINT TEMPERATURE.
      RH  - RELATIVE HUMIDITY.  PRES - PRESSURE.
      HX  - HEAT INDEX.         WCI  - WIND CHILL INDEX.

*  THESE STATIONS ARE NOT NWS OR FAA STATIONS AND ARE NOT UNDER
   NWS QUALITY CONTROL.

LAZ040-048-061>063-065-066-069-282000-
SOUTHEAST LOUISIANA

CITY           SKY/WX    TMP DP  RH WIND       PRES   REMARKS
N.O. AUDUBON     N/A     84  76  78 MISG        N/A
N.O. INTL ARPT CLOUDY    86  74  67 E6        30.00S
N.O. LAKEFRONT CLOUDY    83  75  77 E6        30.00F
N.O. DOWNTOWN* MOCLDY    83  74  74 NE6       30.00F
RESERVE*       CLOUDY    88  77  68 SE9       30.00F HX 100
SLIDELL        CLOUDY    84  77  79 NE5       30.00F
BATON ROUGE    MOSUNNY   88  72  58 E8        29.99F
BOOTHVILLE     LGT RAIN  77  75  93 E3        30.00S
BELLE CHASSE   CLOUDY    81  76  84 E9        29.99F
BOGALUSA*      MOCLDY    90  74  60 E7        30.03F HX  99
GALLIANO*      PTCLDY    84  76  76 E6        29.99F
NEW ROADS*     FAIR      89  73  58 E10G16    29.99F HX  97
GONZALES*      MOCLDY    87  74  65 E3        29.98F HX  95
HAMMOND*       CLOUDY    90  70  51 SE8       30.01S HX  95
HOUMA*         MOSUNNY   84  77  79 E8        29.98F
PORT FOURCHON* NOT AVBL

$$

LAZ041-044-053-054-282000-
SOUTHWEST LOUISIANA

CITY           SKY/WX    TMP DP  RH WIND       PRES   REMARKS
LAKE CHARLES   TSTM      75  32  20 S5        29.97F
LAFAYETTE      CLOUDY    82  76  81 S6        29.97F
PATTERSON      CLOUDY    85  73  67 E10       29.99S
SALT POINT       N/A     86  74  67 VRB7      29.95S
NEW IBERIA     CLOUDY    81  74  79 E9        29.97F
CHENAULT AIRPK PTSUNNY   79  77  94 S7        29.98F

$$

LAZ027-028-282000-
CENTRAL LOUISIANA

CITY           SKY/WX    TMP DP  RH WIND       PRES   REMARKS
FORT POLK      PTSUNNY   89  74  60 NE8G17    29.99F HX  99
ALEXANDRIA INT PTSUNNY   85  75  72 E6        29.98F
ALEXANDRIA     MOSUNNY   90  75  61 VRB6      30.00F HX 100

$$

LAZ001-002-282000-
NORTHWEST LOUISIANA

CITY           SKY/WX    TMP DP  RH WIND       PRES   REMARKS
SHREVEPORT     PTSUNNY   92  75  57 E12       30.01F HX 103
BARKSDALE AFB  MOSUNNY   86  77  74 CALM      30.01F HX  97
DTN SHREVEPORT MOSUNNY   91  75  59 NE6       30.01F HX 101

$$

LAZ014-016-282000-
NORTHEAST LOUISIANA

CITY           SKY/WX    TMP DP  RH WIND       PRES   REMARKS
MONROE         MOSUNNY   91  74  57 NE7       30.03F HX 100
TALLULAH       MOSUNNY   92  73  53 NE7       30.03F HX 100

$$




USA.gov is the U.S. government's official web portal to all federal, state and local government web resources and services.